EW3861 Weather Reports


Display with metric or nautical units.
time (UTC)temp
F
wind
direction
speed
MPH
gust
MPH
rain 1hr
in
rain 24hr
in
rain mn
in
humidity
%
barometer
mb
20260503031613 48 226 0.0 0.0 0.00 0.00 0.00 90 1009.1
20260503030028 48 226 0.0 0.0 0.00 0.00 0.00 90 1009.1
20260503024633 48 226 0.0 0.0 0.00 0.00 0.00 90 1009.1
20260503023058 49 226 0.0 0.0 0.00 0.00 0.00 89 1009.1
20260503021505 49 226 0.0 0.0 0.00 0.00 0.00 89 1009.0
20260503020059 49 226 0.0 0.0 0.00 0.00 0.00 89 1009.2
20260503014510 49 226 0.0 0.0 0.00 0.00 0.00 89 1009.4
20260503013104 49 226 0.0 0.0 0.00 0.00 0.00 88 1009.5
20260503011514 49 226 0.0 0.0 0.00 0.00 0.00 88 1009.4
20260503010124 49 226 0.0 0.0 0.00 0.00 0.00 87 1009.4
20260503004512 50 225 0.0 0.0 0.00 0.00 0.00 87 1009.4
20260503003113 50 225 0.0 0.0 0.00 0.00 0.00 86 1009.2
20260503001519 50 225 0.0 0.0 0.00 0.00 0.00 86 1009.2
20260503000003 50 225 0.0 0.0 0.00 0.00 0.00 86 1009.1
20260502234549 50 225 0.0 0.0 0.00 0.00 0.00 85 1009.2
20260502233015 50 225 0.0 0.0 0.00 0.00 0.00 85 1009.3
20260502231600 51 225 0.0 0.0 0.00 0.00 0.00 84 1009.3
20260502230026 51 224 0.0 0.0 0.00 0.00 0.00 84 1009.3
20260502224633 51 224 0.0 0.0 0.00 0.00 0.00 83 1009.2
20260502223053 51 224 0.0 0.0 0.00 0.00 0.00 82 1009.1
20260502221514 51 224 0.0 0.0 0.00 0.00 0.00 81 1009.0
20260502220109 52 213 0.0 0.0 0.00 0.00 0.00 80 1009.1
20260502214605 52 246 0.0 0.0 0.00 0.00 0.00 80 1009.0
20260502213010 52 211 0.0 0.0 0.00 0.00 0.00 81 1009.0
20260502211607 52 219 0.0 0.0 0.00 0.00 0.00 81 1009.1
20260502210028 52 244 0.0 0.0 0.00 0.00 0.00 81 1009.1
20260502204611 52 207 0.0 0.0 0.00 0.00 0.00 81 1009.1
20260502203018 52 236 0.0 0.0 0.00 0.00 0.00 81 1009.2
20260502201621 52 227 0.0 0.0 0.00 0.00 0.00 80 1009.2
20260502200024 52 248 0.0 0.0 0.00 0.00 0.00 80 1009.3
20260502194502 52 211 0.0 0.0 0.00 0.00 0.00 80 1009.6
20260502193122 52 214 0.0 0.0 0.00 0.00 0.00 77 1009.8
20260502191516 52 220 0.0 0.0 0.00 0.00 0.00 78 1009.9
20260502190109 52 238 0.0 0.0 0.00 0.00 0.00 80 1009.9
20260502184535 52 268 0.0 0.0 0.00 0.00 0.00 88 1009.9
20260502183134 51 249 0.0 0.0 0.00 0.00 0.00 87 1010.0
20260502181557 51 250 0.0 0.0 0.00 0.00 0.00 83 1010.1
20260502163018 57 220 0.0 0.0 0.00 0.00 0.00 62 1009.9
20260502161605 56 209 0.0 0.0 0.00 0.00 0.00 66 1010.0
20260502151526 55 218 0.0 0.0 0.00 0.00 0.00 76 1010.7
20260502123131 50 305 0.0 0.0 0.00 0.00 0.00 80 1011.5
20260502121555 50 244 0.0 0.0 0.00 0.00 0.00 81 1011.3
20260502114638 48 254 0.0 0.0 0.00 0.00 0.00 84 1010.9
20260502113050 47 225 0.0 0.0 0.00 0.00 0.00 86 1010.8
20260502111511 46 229 0.0 0.0 0.00 0.00 0.00 87 1010.9
20260502110101 45 233 0.0 0.0 0.00 0.00 0.00 89 1010.8
20260502104529 45 234 0.0 0.0 0.00 0.00 0.00 89 1010.9
20260502103125 44 234 0.0 0.0 0.00 0.00 0.00 89 1010.7
20260502101611 43 128 0.0 0.0 0.00 0.00 0.00 89 1010.7
20260502080106 42 165 0.0 0.0 0.00 0.00 0.00 85 1010.3
20260502070019 43 165 0.0 0.0 0.00 0.00 0.00 84 1010.5
20260502064633 43 165 0.0 0.0 0.00 0.00 0.00 84 1010.6
20260502063111 43 165 0.0 0.0 0.00 0.00 0.00 83 1010.6
20260502061512 43 165 0.0 0.0 0.00 0.00 0.00 81 1010.6
20260502054549 43 165 0.0 0.0 0.00 0.00 0.00 79 1010.7
20260502053016 44 165 0.0 0.0 0.00 0.00 0.00 79 1010.7
20260502051608 44 165 0.0 0.0 0.00 0.00 0.00 80 1010.7
20260502050020 44 165 0.0 0.0 0.00 0.00 0.00 80 1010.7
20260502044632 44 165 0.0 0.0 0.00 0.00 0.00 78 1010.8
20260502043112 44 165 0.0 0.0 0.00 0.00 0.00 75 1010.9
20260502041512 45 165 0.0 0.0 0.00 0.00 0.00 75 1010.8
20260502040059 45 165 0.0 0.0 0.00 0.00 0.00 74 1010.8
20260502034513 45 165 0.0 0.0 0.00 0.00 0.00 75 1010.7
20260502033106 45 165 0.0 0.0 0.00 0.00 0.00 75 1010.8